EW6103 Weather Reports


time (UTC)temp
F
wind
direction
speed
knots
gust
knots
rain 1hr
in
rain 24hr
in
rain mn
in
humidity
%
barometer
mb
20260903103012 73 45 5.2 9.6 0.00 0.02 0.01 62 1018.4
20260903102008 72 0 3.5 6.1 0.00 0.02 0.01 66 1018.5
20260903101010 71 135 3.5 6.1 0.01 0.02 0.01 62 1018.6
20260903100015 71 135 2.6 3.5 0.01 0.02 0.01 65 1018.6
20260903095009 71 270 1.7 4.3 0.01 0.02 0.01 66 1018.8
20260903094007 71 135 2.6 4.3 0.01 0.02 0.01 68 1018.8
20260903093012 69 135 2.6 3.5 0.01 0.02 0.01 70 1018.9
20260903092007 69 135 0.9 2.6 0.01 0.02 0.01 71 1018.9
20260903091014 69 135 1.7 3.5 0.00 0.01 0.00 72 1018.9
20260903090012 69 270 1.7 3.5 0.00 0.01 0.00 71 1019.1
20260903085009 67 270 1.7 3.5 0.00 0.01 0.00 72 1019.3
20260903084007 67 135 1.7 3.5 0.00 0.01 0.00 75 1019.3
20260903083011 67 270 1.7 3.5 0.00 0.01 0.00 76 1019.5
20260903082009 66 225 0.9 3.5 0.00 0.01 0.00 78 1019.4
20260903081007 64 225 0.9 3.5 0.00 0.01 0.00 79 1019.5
20260903080018 64 270 1.7 3.5 0.00 0.01 0.00 80 1019.4
20260903075007 64 270 1.7 3.5 0.00 0.01 0.00 82 1019.6
20260903074008 62 225 0.9 1.7 0.00 0.01 0.00 84 1019.7
20260903072007 61 180 0.9 2.6 0.00 0.01 0.00 87 1019.7
20260903070016 59 180 0.9 1.7 0.00 0.01 0.00 91 1019.7
20260903065007 59 270 0.0 2.6 0.00 0.01 0.00 90 1019.7
20260903064006 59 225 1.7 3.5 0.00 0.01 0.00 92 1019.9
20260903063009 58 180 0.9 1.7 0.00 0.01 0.00 93 1019.7
20260903062008 57 225 0.9 1.7 0.00 0.01 0.00 95 1019.8
20260903061010 56 225 0.9 2.6 0.00 0.01 0.00 96 1019.9
20260903060010 56 270 0.9 2.6 0.00 0.01 0.00 97 1020.0
20260903055007 55 270 0.9 1.7 0.00 0.01 0.00 98 1019.8
20260903054008 54 90 0.0 0.9 0.00 0.01 0.00 98 1019.7
20260903053016 53 90 0.9 1.7 0.00 0.01 0.00 98 1019.7
20260903050014 52 225 0.0 0.0 0.00 0.01 0.00 98 1019.8
20260903045008 51 225 0.0 0.0 0.00 0.01 0.00 98 1019.8
20260903044007 51 225 0.0 0.0 0.00 0.01 0.00 98 1019.9
20260903043010 51 225 0.0 0.9 0.00 0.01 0.00 97 1019.5
20260903041007 51 180 0.0 0.0 0.00 0.01 0.00 97 1019.5
20260903040011 51 180 0.0 0.0 0.00 0.01 0.00 97 1019.5
20260903035009 51 225 0.0 0.0 0.00 0.01 0.00 97 1019.5
20260903034009 52 225 0.0 0.0 0.00 0.01 0.00 97 1019.5
20260903033013 52 225 0.0 0.9 0.00 0.01 0.00 97 1019.4
20260903032008 53 90 0.0 0.9 0.00 0.01 0.00 97 1019.4
20260903031009 53 90 0.0 1.7 0.00 0.01 0.00 97 1019.4
20260903030017 53 90 0.0 0.9 0.00 0.01 0.00 97 1019.5
20260903025005 53 45 0.0 0.9 0.00 0.01 0.00 97 1019.4
20260903021010 54 0 1.7 3.5 0.00 0.01 0.00 97 1019.5
20260903020015 53 0 0.9 3.5 0.00 0.01 0.00 97 1019.5
20260903015008 53 270 0.0 1.7 0.00 0.01 0.00 97 1019.4
20260903013010 53 270 0.9 1.7 0.00 0.01 0.00 97 1019.4
20260903012006 53 270 0.0 1.7 0.00 0.01 0.00 97 1019.2
20260903010014 53 270 0.0 0.0 0.00 0.01 0.00 96 1019.3
20260903005006 53 270 0.0 0.0 0.00 0.01 0.00 96 1019.3
20260903004008 53 270 0.0 0.9 0.00 0.01 0.00 96 1019.4
20260903003008 54 270 0.0 0.9 0.00 0.01 0.00 96 1019.4
20260903002008 54 270 0.0 0.9 0.00 0.01 0.00 96 1019.4
20260903001008 54 270 0.0 0.9 0.00 0.01 0.00 96 1019.4
20260902235009 54 270 0.0 0.9 0.00 0.01 0.00 95 1019.6
20260902232007 55 270 0.0 1.7 0.00 0.01 0.00 95 1019.6
20260902231009 55 270 0.9 2.6 0.00 0.01 0.00 95 1019.5
20260902230014 55 270 0.9 1.7 0.00 0.01 0.00 94 1019.6
20260902225006 56 180 0.9 2.6 0.00 0.01 0.00 94 1019.6
20260902224009 56 180 1.7 3.5 0.00 0.01 0.00 93 1019.6
20260902223008 56 180 0.9 2.6 0.00 0.01 0.00 92 1019.6
20260902222009 56 270 0.0 1.7 0.00 0.01 0.00 91 1019.4
20260902221007 56 225 0.9 2.6 0.00 0.01 0.00 91 1019.5
20260902220019 57 90 1.7 3.5 0.00 0.01 0.00 90 1019.5
20260902215008 57 180 0.0 0.9 0.00 0.01 0.01 89 1019.3
20260902213010 58 45 1.7 2.6 0.00 0.01 0.01 87 1019.2
20260902212005 58 90 0.9 2.6 0.00 0.01 0.01 88 1019.1
20260902211008 58 90 0.9 2.6 0.01 0.01 0.01 87 1019.1
20260902210011 59 90 1.7 3.5 0.01 0.01 0.01 86 1019.2
20260902205009 59 45 0.9 3.5 0.01 0.01 0.01 82 1019.2
20260902204008 60 45 3.5 7.8 0.01 0.01 0.01 82 1019.0
20260902203008 60 0 3.5 6.1 0.01 0.01 0.01 84 1019.4
20260902201007 64 180 9.6 16.5 0.00 0.00 0.00 73 1019.2
20260902200013 60 45 0.0 2.6 0.00 0.00 0.00 83 1018.3
20260902194007 60 45 0.0 0.9 0.00 0.00 0.00 85 1018.5
20260902193009 60 45 0.0 0.0 0.00 0.00 0.00 83 1018.5
20260902192006 61 45 0.0 0.9 0.00 0.00 0.00 82 1018.5
20260902191007 61 45 0.0 0.9 0.00 0.00 0.00 79 1018.4
20260902190013 61 45 0.0 0.9 0.00 0.00 0.00 79 1018.4
20260902185008 62 135 0.9 2.6 0.00 0.00 0.00 77 1018.3
20260902184006 63 45 0.0 0.9 0.00 0.00 0.00 76 1018.2
20260902182008 64 45 0.0 1.7 0.00 0.00 0.00 75 1018.2
20260902181007 64 90 0.9 1.7 0.00 0.00 0.00 75 1018.1
20260902180014 65 45 0.0 1.7 0.00 0.00 0.00 71 1018.1
20260902175007 66 90 0.9 2.6 0.00 0.00 0.00 72 1017.9
20260902174007 67 90 0.9 2.6 0.00 0.00 0.00 69 1017.8
20260902173008 68 45 0.0 1.7 0.00 0.00 0.00 66 1017.8
20260902171005 70 45 0.0 1.7 0.00 0.00 0.00 63 1017.7
20260902170011 71 90 0.0 1.7 0.00 0.00 0.00 61 1017.6
20260902165008 72 45 0.9 1.7 0.00 0.00 0.00 58 1017.6
20260902164010 72 45 0.0 1.7 0.00 0.00 0.00 56 1017.6
20260902163008 73 45 0.9 2.6 0.00 0.00 0.00 56 1017.5
20260902162007 74 45 0.0 1.7 0.00 0.00 0.00 51 1017.3
20260902161007 75 225 0.0 1.7 0.00 0.00 0.00 49 1017.5
20260902160018 75 180 1.7 3.5 0.00 0.00 0.00 48 1017.5
20260902155007 74 0 1.7 3.5 0.00 0.00 0.00 52 1017.5
20260902154008 76 90 0.9 1.7 0.00 0.00 0.00 49 1017.6
20260902152006 76 270 3.5 4.3 0.00 0.00 0.00 49 1017.8
20260902151006 75 180 1.7 4.3 0.00 0.00 0.00 51 1017.9
20260902150010 76 270 4.3 6.1 0.00 0.00 0.00 51 1017.8
20260902144007 76 180 2.6 4.3 0.00 0.00 0.00 54 1017.9
20260902143011 74 180 3.5 6.1 0.00 0.00 0.00 56 1018.3
20260902142007 75 270 3.5 7.8 0.00 0.00 0.00 51 1018.1
20260902135007 76 270 3.5 7.8 0.00 0.00 0.00 51 1018.4
20260902134006 75 270 3.5 5.2 0.00 0.00 0.00 52 1018.4
20260902133010 74 270 2.6 5.2 0.00 0.00 0.00 54 1018.7
20260902132009 74 225 3.5 4.3 0.00 0.00 0.00 56 1018.6
20260902131034 75 270 4.3 8.7 0.00 0.00 0.00 55 1018.4
20260902125009 75 180 0.9 4.3 0.00 0.00 0.00 54 1018.7
20260902124010 74 180 2.6 3.5 0.00 0.00 0.00 55 1018.7
20260902120021 75 270 3.5 5.2 0.00 0.00 0.00 55 1019.1
20260902115008 75 180 1.7 2.6 0.00 0.00 0.00 58 1019.1
20260902114008 75 270 3.5 4.3 0.00 0.00 0.00 58 1019.2
20260902105009 74 180 1.7 6.1 0.00 0.00 0.00 61 1019.6
20260902104007 74 270 3.5 7.8 0.00 0.00 0.00 58 1019.8